KE5BM-13 Weather Reports


time (UTC)temp
F
wind
direction
speed
knots
gust
knots
rain 1hr
in
rain 24hr
in
rain mn
in
humidity
%
barometer
mb
20260507213624 60 196 2.6 8.7 0.00 0.61 0.28 64 1004.5
20260507213123 60 176 2.6 6.1 0.00 0.61 0.28 69 1004.5
20260507212622 59 246 3.5 6.1 0.00 0.61 0.28 70 1004.6
20260507212124 59 163 2.6 6.1 0.00 0.61 0.28 72 1004.4
20260507211622 59 139 2.6 8.7 0.00 0.61 0.28 73 1004.4
20260507211124 59 189 2.6 8.7 0.00 0.61 0.28 76 1004.3
20260507210624 58 145 2.6 6.1 0.00 0.61 0.28 76 1004.4
20260507210123 58 156 1.7 5.2 0.00 0.61 0.28 77 1004.5
20260507205624 58 157 1.7 4.3 0.00 0.61 0.28 74 1004.5
20260507205121 58 184 1.7 5.2 0.00 0.61 0.28 73 1004.5
20260507204621 58 307 1.7 5.2 0.00 0.61 0.28 76 1004.5
20260507204121 58 222 2.6 7.8 0.00 0.61 0.28 78 1004.4
20260507203622 59 134 2.6 7.8 0.00 0.61 0.28 77 1004.5
20260507203118 59 152 2.6 7.0 0.00 0.61 0.28 75 1004.5
20260507202619 59 173 2.6 7.0 0.00 0.61 0.28 76 1004.4
20260507202119 59 155 2.6 7.0 0.00 0.61 0.28 76 1004.3
20260507201619 59 158 3.5 7.0 0.00 0.61 0.28 76 1004.4
20260507201116 59 198 3.5 7.0 0.00 0.61 0.28 76 1004.3
20260507200612 59 144 3.5 7.0 0.00 0.61 0.28 77 1004.3
20260507200114 59 163 3.5 7.0 0.00 0.61 0.28 76 1004.4
20260507195611 59 300 3.5 9.6 0.00 0.61 0.28 75 1004.4
20260507195113 59 175 3.5 9.6 0.00 0.61 0.28 73 1004.6
20260507194611 59 183 3.5 8.7 0.00 0.61 0.28 74 1004.7
20260507194111 59 161 3.5 9.6 0.00 0.61 0.28 71 1004.7
20260507193612 59 163 3.5 9.6 0.00 0.61 0.28 73 1004.8
20260507193108 59 159 2.6 6.1 0.00 0.61 0.28 73 1004.8
20260507192608 59 188 3.5 7.0 0.00 0.61 0.28 71 1005.0
20260507192105 59 165 2.6 7.0 0.00 0.61 0.28 73 1005.0
20260507191606 59 252 3.5 7.0 0.00 0.61 0.28 72 1004.9
20260507191106 59 157 3.5 7.0 0.00 0.61 0.28 72 1005.0
20260507190605 60 180 2.6 6.1 0.00 0.61 0.28 73 1005.2
20260507185605 59 154 3.5 7.8 0.00 0.61 0.28 74 1005.3
20260507185103 59 168 3.5 7.8 0.00 0.61 0.28 76 1005.3
20260507184602 58 161 3.5 7.0 0.00 0.61 0.28 75 1005.4
20260507184102 58 162 3.5 7.8 0.00 0.61 0.28 73 1005.5
20260507183552 58 141 3.5 7.8 0.00 0.61 0.28 75 1005.5
20260507183052 59 144 3.5 7.0 0.00 0.61 0.28 75 1005.6
20260507182551 58 181 2.6 6.1 0.00 0.61 0.28 75 1005.6
20260507182050 58 170 2.6 6.1 0.00 0.61 0.28 76 1005.6
20260507181542 58 165 2.6 7.0 0.00 0.61 0.28 75 1005.6
20260507181042 58 277 2.6 7.0 0.00 0.61 0.28 75 1005.7
20260507180542 59 158 2.6 5.2 0.00 0.61 0.28 72 1005.7
20260507180043 60 171 1.7 5.2 0.00 0.61 0.28 71 1005.7
20260507175544 60 337 1.7 4.3 0.00 0.61 0.28 63 1005.9
20260507175037 61 244 1.7 5.2 0.00 0.61 0.28 61 1006.0
20260507174538 61 284 0.9 5.2 0.00 0.61 0.28 62 1006.0
20260507174038 61 38 0.9 4.3 0.00 0.61 0.28 61 1006.0
20260507173538 60 61 0.9 5.2 0.00 0.61 0.28 61 1006.1
20260507173028 60 321 1.7 5.2 0.00 0.61 0.28 66 1006.1
20260507172527 59 286 1.7 4.3 0.00 0.61 0.28 61 1006.0
20260507172024 59 22 0.9 4.3 0.00 0.61 0.28 67 1006.1
20260507171524 58 63 0.9 4.3 0.00 0.61 0.28 70 1006.1
20260507171023 57 329 1.7 4.3 0.00 0.61 0.28 68 1006.2
20260507170524 57 22 1.7 6.1 0.00 0.61 0.28 68 1006.3
20260507170024 57 52 2.6 6.1 0.00 0.61 0.28 70 1006.4
20260507165517 57 34 2.6 6.1 0.00 0.61 0.28 68 1006.5
20260507165010 57 25 1.7 6.1 0.00 0.61 0.28 69 1006.6
20260507164511 56 292 2.6 6.1 0.00 0.61 0.28 70 1006.5
20260507164009 56 41 2.6 8.7 0.00 0.61 0.28 71 1006.5
20260507163508 56 13 2.6 8.7 0.00 0.61 0.28 71 1006.4
20260507163008 55 265 2.6 6.1 0.00 0.61 0.28 73 1006.5
20260507162508 56 5 1.7 6.1 0.00 0.61 0.28 72 1006.5
20260507162008 55 10 1.7 6.1 0.00 0.61 0.28 74 1006.6
20260507161507 55 308 1.7 6.1 0.00 0.61 0.28 74 1006.7
20260507161005 55 39 1.7 6.1 0.00 0.61 0.28 75 1006.8
20260507160507 55 64 1.7 7.0 0.00 0.61 0.28 78 1006.6
20260507160006 54 303 2.6 7.0 0.00 0.61 0.28 76 1006.8
20260507155505 54 324 1.7 5.2 0.00 0.61 0.28 78 1006.9
20260507155004 54 345 2.6 6.1 0.00 0.61 0.28 77 1007.0
20260507154504 53 22 2.6 6.1 0.00 0.61 0.28 80 1006.9
20260507154004 53 22 2.6 5.2 0.00 0.61 0.28 81 1007.2
20260507153505 53 312 2.6 7.0 0.00 0.61 0.28 82 1007.2
20260507153005 53 333 2.6 7.0 0.00 0.61 0.28 83 1007.0
20260507152503 52 322 1.7 7.0 0.00 0.61 0.28 84 1007.3
20260507152005 52 296 2.6 7.0 0.00 0.61 0.28 87 1007.2
20260507151455 51 347 2.6 7.0 0.00 0.61 0.28 87 1007.1
20260507150952 51 355 1.7 6.1 0.00 0.61 0.28 88 1007.0
20260507150453 51 59 1.7 4.3 0.00 0.61 0.28 90 1007.0
20260507145950 50 355 0.9 3.5 0.00 0.61 0.28 91 1006.9
20260507145452 50 309 0.9 3.5 0.00 0.61 0.28 91 1006.9
20260507144952 50 28 1.7 3.5 0.00 0.61 0.28 91 1007.2
20260507144453 49 336 1.7 3.5 0.00 0.61 0.28 91 1007.4
20260507143949 49 319 1.7 4.3 0.00 0.61 0.28 92 1007.2
20260507143445 49 330 1.7 4.3 0.00 0.61 0.28 93 1007.2
20260507142944 49 305 1.7 3.5 0.00 0.61 0.28 94 1007.2
20260507142444 49 45 0.9 3.5 0.00 0.61 0.28 94 1007.2
20260507141943 49 351 0.9 2.6 0.00 0.61 0.28 95 1007.4
20260507141441 49 340 0.9 2.6 0.00 0.61 0.28 95 1007.2
20260507140941 48 9 1.7 3.5 0.00 0.61 0.28 95 1007.2
20260507140441 48 5 1.7 5.2 0.00 0.61 0.28 95 1007.1
20260507135942 48 5 1.7 5.2 0.00 0.61 0.28 95 1007.1
20260507135441 48 342 2.6 5.2 0.01 0.61 0.28 95 1007.1
20260507134934 48 304 1.7 4.3 0.01 0.61 0.28 96 1007.1
20260507134334 47 5 1.7 4.3 0.02 0.61 0.28 96 1007.1
20260507133834 47 11 2.6 4.3 0.02 0.61 0.28 96 1006.9
20260507133336 47 336 1.7 4.3 0.02 0.61 0.28 96 1006.7
20260507132835 48 306 0.9 4.3 0.02 0.61 0.28 96 1006.9
20260507132337 48 23 1.7 4.3 0.02 0.61 0.28 96 1006.8
20260507131814 47 5 1.7 2.6 0.02 0.61 0.28 96 1006.9
20260507131309 47 41 1.7 3.5 0.02 0.61 0.28 96 1007.0
20260507130804 47 304 1.7 6.1 0.02 0.61 0.28 96 1007.3
20260507130305 47 355 1.7 6.1 0.02 0.61 0.28 96 1007.4
20260507125306 47 351 1.7 5.2 0.02 0.60 0.27 96 1007.3
20260507124806 47 347 1.7 3.5 0.02 0.60 0.27 96 1007.1
20260507124255 47 355 1.7 4.3 0.01 0.59 0.26 96 1007.2
20260507123732 47 348 1.7 4.3 0.01 0.59 0.26 96 1007.2
20260507123231 47 331 1.7 4.3 0.01 0.59 0.26 96 1007.0
20260507122722 47 44 1.7 4.3 0.01 0.59 0.26 96 1006.9
20260507122221 47 13 1.7 5.2 0.01 0.59 0.26 96 1007.2
20260507121720 48 13 2.6 5.2 0.01 0.59 0.26 96 1007.2
20260507121220 48 329 2.6 5.2 0.01 0.59 0.26 96 1007.1
20260507120722 48 22 2.6 5.2 0.02 0.59 0.26 96 1007.1
20260507120224 48 14 1.7 5.2 0.03 0.59 0.26 96 1006.9
20260507115721 49 315 2.6 5.2 0.04 0.59 0.26 96 1006.9
20260507115220 49 31 2.6 7.0 0.03 0.58 0.25 96 1007.2
20260507114720 49 44 2.6 7.0 0.03 0.58 0.25 96 1007.4
20260507114220 48 321 2.6 7.8 0.03 0.58 0.25 96 1007.6
20260507113718 48 5 2.6 7.8 0.03 0.58 0.25 96 1007.3
20260507113220 48 336 2.6 6.1 0.03 0.58 0.25 96 1007.0
20260507112718 48 22 2.6 5.2 0.03 0.58 0.25 96 1006.5
20260507112216 49 47 2.6 6.1 0.03 0.58 0.25 96 1006.6
20260507111718 49 32 2.6 6.1 0.03 0.58 0.25 96 1006.5
20260507111215 49 0 2.6 7.0 0.04 0.58 0.25 96 1006.5
20260507110714 49 51 2.6 7.0 0.04 0.57 0.24 96 1006.4
20260507110216 49 31 2.6 6.1 0.03 0.56 0.23 97 1006.4
20260507105711 49 306 2.6 7.0 0.03 0.55 0.22 97 1006.8
20260507105211 49 30 2.6 7.0 0.04 0.55 0.22 97 1006.6
20260507104659 49 32 2.6 8.7 0.06 0.55 0.22 97 1006.3
20260507104159 49 348 3.5 8.7 0.14 0.55 0.22 97 1006.3
20260507103700 49 5 3.5 9.6 0.15 0.55 0.22 97 1006.3
20260507103158 49 0 3.5 9.6 0.16 0.55 0.22 97 1006.1
20260507102656 49 355 3.5 7.0 0.17 0.55 0.22 97 1006.0
20260507102157 49 17 3.5 7.0 0.18 0.55 0.22 97 1006.1
20260507101657 49 39 2.6 6.1 0.19 0.55 0.22 97 1006.0
20260507101154 49 11 3.5 7.8 0.18 0.54 0.21 97 1006.1
20260507100654 49 304 3.5 7.8 0.17 0.53 0.21 97 1006.1
20260507100154 49 30 2.6 8.7 0.16 0.52 0.20 97 1005.5
20260507095652 49 5 3.5 11.3 0.17 0.52 0.19 97 1005.6
20260507095152 50 355 4.3 11.3 0.18 0.51 0.18 96 1005.4
20260507094653 50 28 3.5 9.6 0.16 0.49 0.17 96 1005.5
20260507094152 51 30 3.5 9.6 0.08 0.41 0.10 96 1006.1
20260507093650 52 323 3.5 7.0 0.07 0.40 0.07 96 1006.0
20260507093152 53 24 2.6 7.8 0.06 0.39 0.06 97 1005.3
20260507092653 53 5 1.7 7.8 0.05 0.38 0.05 97 1005.4
20260507092151 54 19 0.9 4.3 0.04 0.37 0.04 98 1005.5
20260507091651 53 327 0.9 2.6 0.03 0.36 0.03 98 1005.3
20260507091151 53 30 0.9 3.5 0.03 0.36 0.03 98 1005.3
20260507090647 53 302 0.9 3.5 0.03 0.36 0.03 98 1005.5
20260507090148 53 290 0.9 4.3 0.03 0.36 0.03 97 1005.6
20260507085645 53 325 1.7 5.2 0.02 0.35 0.02 97 1005.7
20260507085143 53 271 1.7 6.1 0.00 0.33 0.00 97 1006.1
20260507084643 53 279 1.7 6.1 0.00 0.33 0.00 97 1005.9
20260507084137 53 298 1.7 4.3 0.00 0.33 0.00 97 1005.8
20260507083635 53 229 0.9 4.3 0.00 0.33 0.00 97 1005.4
20260507083134 53 223 0.9 3.5 0.00 0.33 0.00 97 1005.3
20260507082636 53 229 0.9 4.3 0.00 0.33 0.00 97 1004.9
20260507082135 53 149 1.7 4.3 0.00 0.33 0.00 97 1004.9
20260507081633 53 179 1.7 3.5 0.00 0.33 0.00 97 1004.8
20260507081134 53 151 0.9 4.3 0.00 0.33 0.00 97 1004.9
20260507080631 54 199 0.9 4.3 0.00 0.33 0.00 97 1004.8
20260507080130 54 172 0.9 4.3 0.00 0.33 0.00 97 1004.8
20260507075622 54 161 0.0 3.5 0.00 0.33 0.00 97 1004.9
20260507075124 54 161 0.9 3.5 0.00 0.33 0.00 97 1004.9
20260507074608 54 164 0.9 3.5 0.00 0.33 0.00 97 1004.9
20260507074051 54 157 0.9 3.5 0.00 0.33 0.00 97 1004.9
20260507073553 54 170 0.9 3.5 0.00 0.33 0.00 97 1005.0
20260507073034 54 199 0.9 3.5 0.00 0.33 0.00 97 1005.2
20260507072536 54 159 0.9 3.5 0.00 0.33 0.00 97 1005.2
20260507072029 54 200 0.9 3.5 0.00 0.33 0.00 97 1005.4
20260507071530 54 169 0.9 4.3 0.00 0.33 0.00 97 1005.4
20260507071022 54 169 0.9 4.3 0.00 0.33 0.00 97 1005.7
20260507070515 54 169 0.0 3.5 0.00 0.33 0.00 97 1005.8
20260507070014 54 123 0.0 0.9 0.00 0.33 0.00 97 1005.5
20260507065507 54 84 0.0 0.9 0.00 0.33 0.00 97 1005.2
20260507065003 54 84 0.0 1.7 0.00 0.33 0.00 97 1005.3
20260507064503 54 84 0.9 3.5 0.00 0.33 0.00 97 1005.1
20260507063957 54 177 0.9 3.5 0.00 0.33 0.00 97 1005.5
20260507063457 54 254 0.9 3.5 0.00 0.33 0.00 97 1005.5
20260507062950 54 230 0.9 4.3 0.00 0.33 0.00 97 1005.5
20260507062449 54 190 1.7 4.3 0.00 0.33 0.00 97 1005.5
20260507061946 54 190 1.7 6.1 0.00 0.33 0.00 97 1005.6
20260507061444 54 257 1.7 6.1 0.00 0.33 0.00 97 1005.6
20260507060947 54 259 1.7 5.2 0.00 0.33 0.00 97 1005.6
20260507060443 55 219 2.6 7.8 0.00 0.33 0.00 97 1005.5
20260507055943 55 235 2.6 8.7 0.00 0.33 0.00 97 1005.5
20260507055442 55 171 2.6 8.7 0.00 0.33 0.00 97 1005.6
20260507054943 55 203 2.6 7.0 0.00 0.33 0.00 97 1005.8
20260507054432 55 230 2.6 8.7 0.00 0.33 0.00 97 1005.9
20260507053931 55 194 1.7 8.7 0.00 0.33 0.00 97 1006.0
20260507053430 55 196 2.6 8.7 0.00 0.33 0.00 97 1006.0
20260507052930 55 98 2.6 8.7 0.00 0.33 0.00 97 1006.2
20260507052431 55 246 2.6 8.7 0.00 0.33 0.00 97 1006.3
20260507051929 55 208 2.6 8.7 0.00 0.33 0.00 97 1006.5
20260507051428 55 245 3.5 8.7 0.00 0.33 0.00 97 1006.5
20260507050928 56 157 2.6 7.8 0.00 0.33 0.00 97 1006.5
20260507050426 56 227 2.6 7.0 0.00 0.33 0.00 97 1006.4
20260507045926 56 0 2.6 7.0 0.00 0.33 0.00 97 1006.4
20260507045427 56 279 2.6 7.0 0.00 0.33 0.00 97 1006.4
20260507044925 56 294 2.6 9.6 0.00 0.33 0.00 97 1006.3
20260507044425 56 207 3.5 9.6 0.00 0.33 0.00 97 1006.3
20260507043924 56 119 2.6 9.6 0.00 0.33 0.00 97 1006.4
20260507043426 56 263 2.6 8.7 0.00 0.33 0.00 97 1006.4
20260507042926 56 204 2.6 7.8 0.00 0.33 0.00 97 1006.5
20260507042424 56 253 2.6 7.8 0.00 0.33 0.00 97 1006.6
20260507041924 56 221 2.6 7.8 0.00 0.33 0.00 97 1006.7
20260507041424 56 247 2.6 8.7 0.00 0.33 0.00 97 1006.8
20260507040925 56 305 3.5 8.7 0.00 0.33 0.00 97 1006.7
20260507040425 56 232 3.5 11.3 0.00 0.33 0.00 97 1006.8
20260507035923 56 199 3.5 11.3 0.00 0.33 0.33 97 1006.6
20260507035422 56 231 3.5 9.6 0.00 0.33 0.33 97 1006.7
20260507034921 56 157 3.5 9.6 0.00 0.33 0.33 97 1006.7
20260507034423 56 180 3.5 9.6 0.00 0.33 0.33 97 1006.7
20260507033925 56 152 3.5 10.4 0.00 0.33 0.33 97 1006.8
20260507033419 56 203 3.5 10.4 0.00 0.33 0.33 97 1006.9
20260507032920 56 293 4.3 12.2 0.00 0.33 0.33 97 1006.7
20260507032416 56 222 4.3 12.2 0.00 0.33 0.33 97 1006.6
20260507031917 56 271 4.3 11.3 0.00 0.33 0.33 97 1006.4
20260507031420 56 159 3.5 11.3 0.00 0.33 0.33 97 1006.5
20260507030917 56 166 3.5 10.4 0.00 0.33 0.33 97 1006.5
20260507030418 56 256 3.5 10.4 0.00 0.33 0.33 97 1006.4
20260507025915 56 158 3.5 9.6 0.00 0.33 0.33 97 1006.5
20260507025414 56 286 4.3 9.6 0.00 0.33 0.33 97 1006.6
20260507024915 56 162 4.3 13.0 0.00 0.33 0.33 97 1006.7
20260507024412 56 188 5.2 13.9 0.00 0.33 0.33 97 1006.9
20260507023913 56 204 4.3 13.9 0.00 0.33 0.33 97 1007.2
20260507023412 56 228 4.3 10.4 0.00 0.33 0.33 97 1007.2
20260507022912 56 259 4.3 9.6 0.00 0.33 0.33 97 1007.2
20260507022409 56 196 3.5 9.6 0.00 0.33 0.33 96 1007.3
20260507021910 56 213 3.5 9.6 0.00 0.33 0.33 96 1007.3
20260507021409 56 188 4.3 10.4 0.01 0.33 0.33 96 1007.4
20260507020909 56 155 3.5 10.4 0.01 0.33 0.33 97 1007.4
20260507020410 56 236 3.5 11.3 0.01 0.33 0.33 97 1007.3
20260507015910 56 196 3.5 12.2 0.01 0.33 0.33 97 1007.4
20260507015411 56 208 4.3 12.2 0.01 0.33 0.33 97 1007.6
20260507014907 56 223 4.3 9.6 0.02 0.33 0.33 97 1007.6
20260507014410 56 186 4.3 10.4 0.03 0.33 0.33 97 1007.7
20260507013743 56 182 4.3 12.2 0.05 0.33 0.33 96 1007.8
20260507013242 56 228 4.3 12.2 0.07 0.33 0.33 96 1007.7
20260507012741 56 158 4.3 13.0 0.10 0.33 0.33 96 1007.6
20260507012241 56 228 4.3 14.8 0.13 0.33 0.33 96 1007.5
20260507011740 56 203 4.3 14.8 0.16 0.33 0.33 97 1007.8
20260507011241 56 183 4.3 13.0 0.17 0.32 0.32 96 1007.7
20260507010739 56 116 4.3 13.0 0.19 0.32 0.32 97 1007.8
20260507010238 56 263 4.3 11.3 0.19 0.32 0.32 97 1007.7
20260507005739 56 159 4.3 11.3 0.19 0.32 0.32 96 1007.7
20260507005236 56 214 3.5 8.7 0.20 0.32 0.32 96 1007.7
20260507004738 56 241 4.3 13.0 0.19 0.31 0.31 96 1007.8
20260507004236 56 204 5.2 13.0 0.19 0.30 0.30 96 1007.7
20260507003735 56 184 4.3 13.0 0.17 0.28 0.28 96 1007.7
20260507003237 56 159 4.3 10.4 0.16 0.26 0.27 96 1007.8
20260507002734 55 150 5.2 10.4 0.13 0.23 0.23 96 1007.9
20260507002233 55 147 5.2 11.3 0.11 0.20 0.20 96 1007.7
20260507001735 55 170 4.3 11.3 0.10 0.17 0.17 96 1007.6
20260507001232 55 189 4.3 12.2 0.10 0.15 0.15 96 1007.7
20260507000731 55 176 5.2 12.2 0.09 0.13 0.14 96 1007.7
20260507000234 55 171 4.3 12.2 0.09 0.13 0.13 95 1007.6
20260506235732 55 186 5.2 12.2 0.10 0.13 0.13 95 1007.8
20260506235231 55 141 5.2 12.2 0.11 0.12 0.12 95 1007.9
20260506234729 55 145 5.2 12.2 0.12 0.12 0.12 95 1007.9
20260506234229 55 132 5.2 12.2 0.11 0.11 0.11 95 1007.9
20260506233727 55 163 5.2 13.9 0.11 0.11 0.11 95 1007.9
20260506233225 55 146 6.1 13.9 0.10 0.10 0.10 94 1007.9
20260506232727 55 150 5.2 10.4 0.10 0.10 0.10 94 1008.2
20260506232227 56 278 5.2 11.3 0.09 0.09 0.09 94 1008.3
20260506231726 56 137 5.2 11.3 0.07 0.07 0.08 94 1008.3
20260506231227 56 176 5.2 14.8 0.05 0.05 0.05 93 1008.2
20260506230724 56 160 6.1 19.1 0.04 0.04 0.04 93 1008.3
20260506230223 56 198 5.2 19.1 0.04 0.04 0.04 92 1008.3
20260506225722 56 201 5.2 12.2 0.03 0.03 0.03 92 1008.3
20260506225222 57 239 5.2 12.2 0.01 0.01 0.02 90 1008.3
20260506224721 57 168 5.2 14.8 0.00 0.00 0.00 90 1008.5
20260506224223 57 222 5.2 14.8 0.00 0.00 0.00 90 1008.4
20260506223719 57 150 5.2 11.3 0.00 0.00 0.00 89 1008.3
20260506223220 58 240 4.3 11.3 0.00 0.00 0.00 89 1008.2
20260506222720 58 235 4.3 9.6 0.00 0.00 0.00 89 1008.3
20260506222219 58 156 4.3 11.3 0.00 0.00 0.00 89 1008.4
20260506221717 57 211 5.2 12.2 0.00 0.00 0.00 89 1008.3
20260506221218 57 144 5.2 12.2 0.00 0.00 0.00 88 1008.4
20260506220717 58 167 5.2 11.3 0.00 0.00 0.00 88 1008.6
20260506220219 58 155 5.2 12.2 0.00 0.00 0.00 88 1008.6
20260506215720 58 146 5.2 12.2 0.00 0.00 0.00 88 1008.5
20260506215217 58 198 5.2 12.2 0.00 0.00 0.00 89 1008.6
20260506214719 58 207 5.2 12.2 0.00 0.00 0.00 89 1008.6
20260506214205 58 205 5.2 10.4 0.00 0.00 0.00 88 1008.7